Location: Risskov
(56.1972°N, 10.2480°E)
Time: 00:28:22
(UTC+00:00)

COSMOS 2455 - Pass Details

Date: 05 July 2020
Orbit: 898 x 911 km, 67.1° (Epoch: 03 August)

Event Time Altitude Azimuth Distance (km) Brightness Sun altitude
Rises 21:38:36 0° 312° (NW) 3,551 7.4 -8.0°
Reaches altitude 10° 21:41:12 10° 317° (NW) 2,608 6.6 -8.2°
Maximum altitude 21:47:08 54° 35° (NE) 1,099 3.5 -8.5°
Drops below altitude 10° 21:53:03 10° 113° (ESE) 2,600 4.8 -8.8°
Enters shadow 21:55:17 - 117° (ESE) 3,415 5.4 -8.9°
